Grand Rapids, MI

6:02 AM EDT on May 27, 2017 (GMT -0400)
Gerald R. Ford International

Weather History for KGRR - November, 2014

Change the Weather History Date:

Tuesday, November 25, 2014

  Actual Average Record
Temperature  
Mean Temperature 30 °F 36 °F  
Max Temperature 31 °F 43 °F 65 °F (1908)
Min Temperature 29 °F 30 °F -10 °F (1950)
Degree Days  
Heating Degree Days 35 29  
Month to date heating degree days 747 596  
Since 1 July heating degree days 1329 1188  
Cooling Degree Days 0 0  
Month to date cooling degree days 0 0  
Year to date cooling degree days 611 699  
Moisture  
Dew Point 24 °F    
Average Humidity 81    
Maximum Humidity 92    
Minimum Humidity 69    
Precipitation  
Precipitation 0.07 in 0.11 in 1.39 in (1979)
Month to date precipitation 4.07 2.98  
Year to date precipitation 38.67 35.24  
Snow  
Snow 1.00 in 0.40 in 3.50 in (2005)
Month to date snowfall 30.3 4.9  
Since 1 July snowfall 30.3 5.4  
Since 1 September snowfall 30.3 5.4  
Snow Depth T in    
Sea Level Pressure  
Sea Level Pressure 29.95 in    
Wind  
Wind Speed 14 mph (WSW)    
Max Wind Speed 32 mph    
Max Gust Speed 39 mph    
Visibility 7 miles    
Events Snow    
T = Trace of Precipitation, MM = Missing Value Source: NWS Daily Summary

Daily Weather History Graph

Daily Weather History Graph

Search for Another Location

Airport or City:

Trip Planner

Search our weather history database for the weather conditions in past years. The results will help you decide how hot, cold, wet, or windy it might be!

Date:

Astronomy

Nov. 25, 2014 Rise Set
Actual Time 7:46 AM EST 5:11 PM EST
Civil Twilight 7:15 AM EST 5:42 PM EST
Nautical Twilight 6:40 AM EST 6:17 PM EST
Astronomical Twilight 6:06 AM EST 6:51 PM EST
Moon 10:30 AM EST (11/25) 8:37 PM EST (11/25)
Length of Visible Light 10h 27m
Length of Day
9h 25m
Waxing Crescent, 12% of the Moon is Illuminated
Nov 25
Waxing Crescent
Nov 29
First Quarter
Dec 6
Full
Dec 14
Last Quarter
Dec 21
New

Hourly Weather History & Observations

Time (EST) Temp. Windchill Dew Point Humidity Pressure Visibility Wind Dir Wind Speed Gust Speed Precip Events Conditions
12:03 AM 30.9 °F 15.9 °F 26.1 °F 82% 29.67 in 9.0 mi WSW 31.1 mph 39.1 mph 0.00 in Snow Light Snow
12:23 AM 30.0 °F 16.6 °F 26.1 °F 85% 29.68 in 2.0 mi WSW 23.0 mph 29.9 mph 0.00 in Snow Light Snow
12:46 AM 30.0 °F 16.0 °F 26.1 °F 85% 29.69 in 3.0 mi WSW 25.3 mph 31.1 mph 0.00 in Snow Light Snow
12:53 AM 30.0 °F 16.6 °F 26.1 °F 85% 29.71 in 4.0 mi WSW 23.0 mph 32.2 mph 0.00 in Snow Light Snow
1:53 AM 30.0 °F 16.9 °F 25.0 °F 82% 29.74 in 10.0 mi WSW 21.9 mph 35.7 mph 0.00 in   Overcast
2:39 AM 30.0 °F 16.6 °F 25.0 °F 82% 29.74 in 10.0 mi WSW 23.0 mph 29.9 mph 0.00 in   Overcast
2:49 AM 30.2 °F 15.9 °F 24.8 °F 80% 29.74 in 10.0 mi WSW 26.5 mph 31.1 mph 0.00 in   Overcast
2:53 AM 30.0 °F 16.6 °F 24.1 °F 79% 29.77 in 10.0 mi WSW 23.0 mph - 0.00 in   Overcast
3:53 AM 28.9 °F 16.5 °F 24.1 °F 82% 29.79 in 8.0 mi WSW 18.4 mph 28.8 mph 0.00 in Snow Light Snow
4:53 AM 28.9 °F 16.9 °F 24.1 °F 82% 29.81 in 9.0 mi WSW 17.3 mph - 0.00 in Snow Light Snow
5:53 AM 28.9 °F 17.3 °F 24.1 °F 82% 29.84 in 8.0 mi SW 16.1 mph - 0.00 in Snow Light Snow
6:53 AM 28.9 °F 17.3 °F 24.1 °F 82% 29.88 in 8.0 mi WSW 16.1 mph - 0.00 in Snow Light Snow
7:53 AM 28.9 °F 17.3 °F 25.0 °F 85% 29.90 in 4.0 mi SW 16.1 mph - 0.00 in Snow Light Snow
8:03 AM 28.9 °F 17.3 °F 25.0 °F 85% 29.88 in 4.0 mi SW 16.1 mph - 0.00 in Snow Light Freezing Drizzle
8:16 AM 28.9 °F 16.9 °F 26.1 °F 89% 29.88 in 1.8 mi WSW 17.3 mph - 0.00 in Snow Light Freezing Drizzle
8:44 AM 28.9 °F 18.2 °F 25.0 °F 85% 29.89 in 1.8 mi SW 13.8 mph 24.2 mph 0.00 in Snow Light Snow
8:53 AM 28.9 °F 18.6 °F 25.0 °F 85% 29.93 in 1.8 mi SW 12.7 mph - 0.00 in Snow Light Snow
9:37 AM 28.9 °F 17.7 °F 26.1 °F 89% 29.93 in 1.5 mi WSW 15.0 mph - 0.01 in Snow Light Snow
9:47 AM 28.4 °F 18.0 °F 26.6 °F 93% 29.93 in 0.8 mi WSW 12.7 mph - N/A Snow Light Snow
9:53 AM 28.9 °F 18.2 °F 26.1 °F 89% 29.96 in 0.8 mi WSW 13.8 mph - 0.02 in Snow Light Snow
10:53 AM 28.9 °F 18.2 °F 26.1 °F 89% 29.99 in 1.2 mi West 13.8 mph - 0.01 in Snow Light Snow
11:45 AM 30.0 °F 20.0 °F 25.0 °F 82% 29.98 in 5.0 mi West 12.7 mph - 0.00 in Snow Light Snow
11:53 AM 30.0 °F 21.1 °F 25.0 °F 82% 30.01 in 9.0 mi West 10.4 mph - 0.00 in Snow Light Snow
12:53 PM 30.9 °F 19.8 °F 23.0 °F 72% 30.03 in 9.0 mi West 16.1 mph - 0.00 in Snow Light Snow
1:29 PM 30.0 °F 20.0 °F 23.0 °F 75% 30.01 in 9.0 mi West 12.7 mph - 0.00 in Snow Light Snow
1:53 PM 30.0 °F 18.7 °F 21.9 °F 72% 30.05 in 9.0 mi West 16.1 mph - 0.00 in Snow Light Snow
2:31 PM 30.0 °F 19.5 °F 21.0 °F 69% 30.03 in 10.0 mi West 13.8 mph - 0.00 in   Overcast
2:53 PM 30.0 °F 20.0 °F 21.9 °F 72% 30.08 in 10.0 mi West 12.7 mph - 0.00 in   Overcast
3:53 PM 30.0 °F 19.5 °F 21.9 °F 72% 30.11 in 10.0 mi West 13.8 mph - N/A   Overcast
4:53 PM 30.0 °F 20.0 °F 23.0 °F 75% 30.13 in 9.0 mi WSW 12.7 mph - 0.00 in Snow Light Snow
5:53 PM 30.0 °F 20.5 °F 23.0 °F 75% 30.14 in 9.0 mi West 11.5 mph - 0.00 in Snow Light Snow
6:53 PM 28.9 °F 19.8 °F 21.9 °F 75% 30.17 in 9.0 mi WSW 10.4 mph - 0.00 in   Overcast
7:53 PM 28.9 °F 20.4 °F 21.9 °F 75% 30.18 in 10.0 mi WSW 9.2 mph - N/A   Overcast
8:53 PM 28.9 °F 21.9 °F 21.9 °F 75% 30.19 in 10.0 mi WSW 6.9 mph - N/A   Overcast
9:53 PM 28.9 °F 22.8 °F 21.0 °F 72% 30.19 in 10.0 mi SSW 5.8 mph - N/A   Overcast
10:53 PM 28.9 °F 22.8 °F 21.9 °F 75% 30.21 in 10.0 mi South 5.8 mph - N/A   Overcast
11:53 PM 28.9 °F 21.1 °F 23.0 °F 78% 30.21 in 10.0 mi South 8.1 mph - N/A   Overcast